Wetbulb
68.56 73.96 72.60 73.00 73.29 73.38 73.40 73.72 73.84 74.09 74.46 74.65 74.57 74.55 74.62 74.64 74.48 74.06 73.87 73.79 73.60 73.78 73.24 73.30 73.08 72.98 72.88 73.03 73.13 73.02 73.08 73.00 72.75 72.99 72.66 72.49 72.04 72.34 71.87 71.48 72.09 71.51 72.34
70.61 74.32 72.15 72.62 73.26 73.47 73.20 73.55 73.82 74.19 74.48 74.60 74.35 74.49 74.58 74.48 74.15 73.96 73.77 73.64 73.58 73.05 73.15 73.15 72.90 72.73 72.64 72.65 72.60 72.93 72.78 72.47 72.40 72.82 72.78 72.26 71.82 71.89 71.57 72.25 72.43 71.99 71.84
71.53 74.71 74.08 72.08 73.00 73.41 73.38 73.62 74.21 74.45 74.57 74.52 74.39 74.38 74.18 74.08 74.03 73.83 73.66 73.38 73.36 72.95 72.74 73.00 72.73 72.34 72.17 72.06 72.47 72.47 72.23 72.08 71.91 71.63 71.75 72.01 71.13 71.65 71.57 71.51 71.92 71.57 71.03
72.20 74.76 74.64 72.17 72.61 73.05 72.97 73.29 73.81 74.41 74.52 74.17 74.16 74.06 74.06 73.85 73.81 73.68 73.38 73.25 73.23 72.83 72.21 72.57 72.66 72.12 71.71 71.96 71.82 71.73 71.47 71.14 70.76 70.59 72.96 72.11 70.55 71.33 71.62 71.30 71.11 70.98 70.88
71.92 74.34 74.82 71.73 72.04 72.72 72.61 72.81 73.26 73.63 73.53 73.58 73.51 73.72 73.72 73.77 73.52 73.44 73.14 73.34 73.33 72.75 71.70 71.72 71.82 71.34 71.07 70.79 70.62 70.34 69.78 69.21 69.36 70.51 72.00 72.49 72.09 71.23 71.35 71.28 71.42 70.83 70.76
71.67 73.73 71.75 70.97 71.75 72.46 72.53 72.67 72.76 72.68 72.46 72.79 72.97 73.24 73.45 73.50 73.45 73.27 73.09 73.56 73.75 72.86 71.90 70.81 70.15 69.79 69.43 69.24 69.22 69.11 68.80 68.07 68.09 71.79 72.20 71.52 71.85 71.30 71.35 70.84 71.56 71.10 71.06
71.69 73.56 74.24 70.33 71.28 72.33 72.65 72.78 72.37 72.05 71.89 72.21 72.77 73.00 73.17 73.43 73.27 72.86 72.87 73.57 73.55 73.05 72.07 70.91 70.11 69.74 69.33 69.06 69.14 68.95 68.76 68.18 71.24 72.05 72.13 72.88 73.22 72.27 71.52 70.86 70.90 71.10 70.78
71.78 73.46 74.23 71.52 71.46 71.61 71.91 71.84 71.23 71.12 71.58 71.92 72.17 72.66 73.17 73.21 72.70 72.71 72.77 72.86 73.05 72.96 71.96 71.15 70.39 69.93 69.59 69.38 69.01 68.77 68.96 69.12 69.52 72.48 72.85 73.34 71.50 72.34 71.72 71.01 70.88 70.90 70.80
72.29 73.38 74.46 73.99 72.64 70.56 70.29 70.18 69.95 70.54 71.10 71.42 71.51 71.85 72.32 71.87 71.65 72.30 72.67 72.52 72.40 71.91 71.68 70.94 70.32 69.86 69.67 69.39 69.33 69.31 69.19 68.85 71.39 71.92 71.14 72.56 69.90 71.32 71.75 71.23 71.18 70.82 70.92
71.64 72.62 73.64 74.44 74.16 73.97 73.77 69.60 69.66 69.99 70.03 70.50 71.05 71.01 70.65 70.64 71.24 71.76 71.75 71.91 71.83 71.67 71.49 71.35 70.81 70.84 70.92 70.67 70.24 69.74 69.41 69.10 71.07 70.69 70.57 72.11 70.20 71.65 72.01 71.65 71.17 70.75 70.85
69.75 71.15 72.58 73.01 73.26 73.61 73.56 72.93 70.51 70.47 70.49 70.13 70.92 70.25 69.68 72.97 72.98 72.76 71.32 70.89 71.19 70.36 70.49 70.72 70.40 69.82 69.54 69.28 69.43 69.30 68.60 71.73 72.22 72.02 72.37 69.30 69.64 71.28 71.45 71.77 70.99 70.63 70.03
68.14 69.87 71.67 72.73 73.13 73.45 72.14 73.86 73.96 73.71 73.28 73.28 73.05 73.49 73.27 73.55 73.56 72.05 71.01 70.25 70.40 69.84 69.83 69.78 69.55 68.87 68.61 71.57 71.69 69.00 70.98 71.88 72.29 72.18 72.90 68.25 69.73 71.25 71.14 70.09 69.57 69.36 68.87
69.14 69.54 70.36 71.72 72.79 72.88 72.05 72.95 72.66 72.58 72.61 72.43 73.01 72.71 73.12 72.15 72.20 71.84 71.53 71.12 71.64 69.68 71.15 70.14 70.65 70.89 71.50 71.73 71.71 72.11 71.98 72.24 72.47 72.56 70.25 68.42 70.42 70.92 70.36 69.54 69.03 68.50 67.57
69.27 69.52 70.22 70.63 71.27 72.08 72.17 71.76 72.08 71.64 71.70 71.98 72.35 72.35 72.10 71.76 71.06 71.12 71.24 71.07 71.65 72.20 71.88 71.75 71.12 70.93 71.41 71.36 70.79 71.91 70.98 71.75 72.21 72.21 69.87 65.68 68.40 69.86 69.33 69.39 68.16 67.38 66.75
69.89 69.89 70.34 70.25 70.74 70.82 71.31 70.58 70.53 71.43 71.28 71.15 70.96 71.19 71.57 70.71 70.40 70.16 70.67 71.43 71.86 71.79 71.02 70.26 70.16 69.32 69.75 70.79 71.64 69.78 68.09 67.97 69.05 70.04 68.79 64.12 66.15 67.95 68.52 68.14 67.29 66.30 65.08
71.81 71.58 71.11 70.41 70.79 70.19 69.05 69.40 69.87 71.18 70.73 69.95 69.26 70.45 70.32 70.44 69.68 70.10 70.74 70.55 70.10 69.85 69.93 69.73 68.68 68.21 69.35 68.99 68.36 67.71 67.06 65.93 65.52 64.79 63.53 63.51 62.08 64.83 66.01 65.66 65.00 64.20 63.13
71.84 72.71 71.37 69.99 69.19 69.17 68.44 69.39 69.55 69.59 68.98 67.84 66.13 65.36 66.06 66.63 67.60 68.01 67.44 67.94 67.81 68.12 68.04 68.52 68.28 69.18 66.79 65.07 66.05 65.83 63.98 63.43 63.36 61.71 61.24 59.54 59.79 59.76 61.15 62.14 61.58 61.41 60.96
70.60 71.76 70.30 68.02 67.91 68.47 67.79 67.67 69.22 66.08 61.67 59.85 59.17 59.91 61.66 63.32 64.55 64.87 65.74 65.97 66.42 66.83 66.68 67.22 67.68 67.46 67.10 65.15 64.86 62.21 60.66 59.95 58.69 58.80 58.43 59.39 58.71 57.61 57.29 58.41 58.54 58.70 58.74
69.45 71.44 68.25 67.06 66.02 66.39 66.17 62.85 59.33 58.38 58.21 58.63 58.91 58.62 56.60 59.33 62.22 63.73 64.13 64.59 64.66 65.03 64.85 64.31 65.39 64.44 62.66 62.37 60.30 58.14 57.66 57.01 56.29 56.12 55.23 56.69 56.85 56.93 56.22 54.06 54.23 55.01 55.94
67.36 70.79 67.06 65.73 65.96 62.57 61.21 58.95 58.15 57.67 57.82 59.01 59.55 57.19 56.20 58.84 60.45 61.23 61.08 61.47 61.43 60.88 62.09 62.77 61.60 62.92 62.36 61.32 57.42 52.87 51.27 51.93 53.81 53.26 52.99 54.22 56.28 55.97 55.99 55.78 54.48 52.44 52.32
69.60 65.90 64.78 64.35 60.64 60.14 59.54 59.08 59.29 57.06 58.80 57.33 59.02 56.30 55.99 56.53 57.58 58.02 59.51 58.34 59.62 59.36 59.98 61.82 61.24 59.75 60.69 60.50 56.97 51.42 49.03 48.33 47.78 48.78 49.53 49.68 51.06 51.97 53.54 52.03 54.05 53.05 50.71
63.61 63.35 61.27 59.24 59.87 60.53 61.71 62.34 62.42 57.83 57.89 57.35 56.44 54.17 53.71 54.66 55.67 57.01 56.91 56.73 56.64 57.56 58.64 59.41 59.76 58.41 59.22 60.59 58.41 56.18 48.34 47.36 45.28 45.50 45.87 45.97 46.14 47.49 48.11 50.09 51.10 50.62 50.75
59.35 58.78 58.33 57.83 57.41 56.99 60.81 61.39 59.40 58.03 55.84 55.05 54.04 54.01 54.70 55.47 53.82 52.81 53.40 53.73 55.11 55.66 55.11 56.39 57.10 57.08 55.19 58.80 60.08 57.48 50.74 49.35 44.75 44.03 42.78 43.97 44.52 45.40 45.98 47.21 48.03 49.01 49.51
58.03 58.45 58.15 57.47 57.26 57.94 61.43 62.16 61.63 60.66 57.12 57.72 57.79 57.55 55.43 52.90 52.69 52.89 53.81 53.41 54.05 54.69 55.25 56.25 56.17 56.25 56.39 55.34 57.80 58.76 58.29 56.64 50.36 40.64 41.07 41.76 45.03 44.43 44.88 44.03 45.21 46.44 48.41
59.00 59.44 59.55 58.49 57.99 59.56 64.10 64.65 63.31 59.81 61.77 61.52 60.41 57.91 55.42 55.85 55.04 54.78 55.26 55.34 55.38 55.04 54.66 54.93 54.61 54.32 54.55 54.66 55.30 55.74 55.83 55.39 55.76 51.13 41.65 38.71 41.10 43.40 43.92 43.66 44.48 45.36 45.80
61.02 61.53 61.84 60.34 62.40 64.41 64.52 64.30 63.25 61.79 60.51 59.41 58.74 57.83 57.21 57.26 56.65 56.49 55.79 56.28 56.25 55.54 54.49 54.69 54.56 53.60 53.57 53.14 53.47 54.05 54.26 53.06 51.32 51.77 49.54 43.73 42.27 41.43 41.91 42.22 43.09 44.13 45.05
MSLP
1010.96 1012.06 1013.61 1014.19 1014.79 1015.24 1015.46 1015.49 1015.58 1015.86 1016.08 1016.23 1016.50 1016.69 1016.99 1017.15 1017.39 1017.69 1017.94 1018.00 1018.19 1018.13 1018.05 1017.99 1018.15 1018.16 1018.20 1018.31 1018.34 1018.53 1018.77 1018.87 1018.90 1019.08 1019.03 1019.05 1019.14 1019.24 1019.29 1019.20 1018.75 1018.75 1019.46
1011.03 1012.20 1013.57 1014.15 1014.73 1015.15 1015.57 1015.73 1015.73 1015.96 1016.29 1016.53 1016.76 1017.00 1017.25 1017.41 1017.55 1017.79 1018.07 1018.29 1018.36 1018.33 1018.35 1018.23 1018.30 1018.44 1018.50 1018.78 1018.91 1018.74 1019.05 1019.27 1019.25 1019.25 1019.30 1019.37 1019.44 1019.51 1019.55 1019.48 1019.11 1019.69 1019.87
1011.56 1012.41 1013.53 1014.19 1014.66 1015.01 1015.39 1015.73 1015.76 1016.02 1016.48 1016.82 1016.92 1017.21 1017.45 1017.73 1017.85 1018.00 1018.19 1018.38 1018.41 1018.56 1018.55 1018.57 1018.59 1018.71 1018.75 1018.76 1019.17 1019.23 1019.11 1019.38 1019.55 1019.41 1019.10 1017.98 1019.05 1019.79 1019.78 1019.92 1020.08 1020.18 1020.20
1011.53 1012.39 1013.03 1014.17 1014.57 1015.05 1015.49 1015.86 1016.11 1016.20 1016.48 1016.87 1017.08 1017.32 1017.67 1017.89 1018.14 1018.30 1018.40 1018.45 1018.54 1018.67 1018.83 1018.76 1018.88 1018.99 1019.18 1019.07 1019.07 1019.47 1019.51 1019.43 1019.54 1019.26 1018.05 1017.99 1018.88 1020.09 1020.09 1020.15 1020.22 1020.33 1020.42
1011.59 1012.23 1012.84 1014.27 1014.74 1015.19 1015.59 1015.91 1016.11 1016.34 1016.58 1016.97 1017.32 1017.58 1017.84 1018.07 1018.29 1018.45 1018.63 1018.71 1018.82 1018.83 1019.00 1019.08 1019.15 1019.23 1019.46 1019.57 1019.35 1019.35 1019.55 1019.57 1019.39 1018.86 1018.30 1018.45 1018.59 1020.05 1020.33 1020.38 1020.44 1020.41 1020.48
1011.83 1012.41 1013.79 1014.49 1014.94 1015.39 1015.82 1016.15 1016.26 1016.34 1016.71 1017.05 1017.32 1017.61 1017.84 1018.09 1018.27 1018.47 1018.76 1018.96 1019.01 1019.15 1019.30 1019.43 1019.53 1019.45 1019.58 1019.78 1019.72 1019.60 1019.58 1019.61 1019.32 1018.04 1018.38 1019.09 1018.67 1020.01 1020.36 1020.54 1020.56 1020.67 1020.69
1012.49 1012.90 1014.18 1015.09 1015.56 1015.92 1016.12 1016.32 1016.43 1016.64 1016.84 1017.19 1017.48 1017.76 1018.01 1018.17 1018.51 1018.71 1018.74 1018.95 1019.10 1019.26 1019.42 1019.66 1019.81 1019.93 1019.69 1019.83 1019.96 1019.87 1019.75 1019.63 1018.55 1018.08 1018.15 1018.53 1018.86 1020.02 1020.31 1020.59 1020.74 1020.92 1021.02
1013.02 1013.36 1014.13 1015.27 1015.75 1016.17 1016.39 1016.46 1016.60 1016.99 1017.19 1017.42 1017.75 1017.94 1018.14 1018.43 1018.51 1018.86 1019.01 1019.07 1019.25 1019.40 1019.58 1019.77 1019.95 1020.03 1020.16 1020.03 1020.11 1020.12 1020.00 1019.73 1018.84 1018.20 1018.18 1018.11 1019.22 1019.78 1020.16 1020.46 1020.74 1020.96 1021.21
1013.15 1013.48 1014.10 1014.92 1015.74 1016.36 1016.68 1016.98 1017.07 1017.21 1017.43 1017.71 1017.89 1018.07 1018.35 1018.56 1018.86 1018.84 1019.14 1019.17 1019.29 1019.51 1019.63 1019.79 1019.95 1019.98 1020.15 1020.15 1020.25 1020.26 1020.16 1019.89 1018.81 1018.07 1018.30 1018.09 1019.34 1019.66 1019.88 1020.24 1020.48 1020.83 1021.10
1013.33 1013.60 1014.01 1014.45 1015.17 1015.75 1016.27 1016.72 1017.00 1017.26 1017.60 1017.92 1018.14 1018.32 1018.48 1018.76 1018.86 1018.98 1019.03 1019.30 1019.41 1019.59 1019.77 1019.83 1019.90 1020.05 1020.10 1020.11 1020.05 1020.08 1020.02 1019.82 1018.74 1018.09 1018.02 1018.17 1019.42 1019.51 1019.71 1020.12 1020.50 1020.78 1021.00
1013.03 1013.56 1013.90 1014.28 1014.75 1015.22 1015.56 1016.34 1017.17 1017.59 1017.79 1018.05 1018.23 1018.46 1018.63 1018.18 1018.46 1018.81 1018.64 1018.98 1019.41 1019.58 1019.75 1019.88 1019.98 1019.93 1019.91 1019.93 1019.83 1019.82 1019.85 1018.41 1018.45 1018.03 1017.70 1018.89 1019.53 1019.54 1019.69 1020.06 1020.45 1020.75 1020.99
1012.18 1013.00 1013.68 1014.07 1014.51 1014.95 1015.21 1016.07 1016.59 1016.93 1017.29 1017.52 1017.67 1018.01 1017.91 1017.87 1018.00 1018.07 1018.61 1019.18 1019.32 1019.56 1019.69 1019.77 1019.80 1019.82 1019.57 1018.19 1018.51 1019.40 1018.71 1018.24 1018.42 1018.57 1017.92 1018.97 1019.31 1019.63 1020.02 1020.30 1020.59 1021.09 1021.38
1011.36 1012.34 1013.36 1014.23 1014.66 1014.97 1014.82 1015.39 1015.79 1016.28 1016.66 1017.27 1017.49 1017.80 1017.87 1018.17 1018.53 1018.49 1018.51 1018.79 1018.68 1019.27 1018.73 1019.03 1019.07 1018.94 1018.46 1018.25 1018.29 1018.87 1018.58 1018.50 1018.47 1018.53 1018.77 1019.06 1019.43 1019.92 1020.39 1020.74 1021.03 1021.33 1021.79
1011.23 1012.06 1013.25 1014.33 1014.79 1015.07 1014.85 1015.33 1015.42 1015.93 1016.84 1017.28 1017.51 1017.84 1018.08 1018.23 1018.54 1018.35 1018.16 1018.47 1018.53 1018.31 1018.15 1018.15 1017.91 1018.15 1018.33 1018.56 1018.61 1018.80 1018.77 1018.72 1018.75 1018.81 1019.49 1019.56 1019.67 1020.02 1020.73 1021.01 1021.37 1021.61 1022.05
1010.95 1011.82 1012.83 1014.46 1014.81 1015.07 1015.26 1015.72 1016.07 1015.93 1016.39 1016.60 1017.43 1017.97 1017.88 1017.93 1018.19 1018.55 1018.60 1018.47 1018.55 1018.56 1018.41 1018.31 1018.31 1018.33 1018.55 1018.61 1018.66 1018.99 1019.61 1019.83 1019.75 1019.69 1020.24 1020.38 1020.17 1020.63 1020.96 1021.35 1021.76 1022.15 1022.59
1010.64 1011.41 1012.67 1014.11 1014.67 1015.17 1015.99 1016.14 1016.20 1016.29 1016.57 1017.35 1018.04 1018.11 1018.33 1018.31 1018.50 1018.60 1018.41 1018.53 1018.59 1018.70 1018.68 1018.58 1018.53 1018.52 1018.35 1018.89 1019.53 1019.77 1020.07 1020.40 1020.66 1020.79 1021.21 1021.38 1021.24 1021.50 1021.67 1021.98 1022.35 1022.64 1023.09
1010.59 1011.28 1012.61 1014.16 1015.07 1015.48 1015.92 1016.20 1016.42 1016.57 1017.19 1017.85 1018.80 1019.11 1019.03 1018.87 1018.73 1018.61 1018.61 1018.84 1019.13 1019.36 1019.39 1019.25 1019.12 1018.83 1019.30 1019.92 1020.26 1020.54 1020.94 1021.27 1021.52 1021.73 1022.15 1022.17 1022.63 1022.40 1022.73 1022.95 1023.28 1023.48 1023.71
1010.20 1011.25 1012.87 1014.38 1015.05 1015.39 1015.92 1016.53 1016.49 1017.36 1018.52 1019.07 1019.59 1020.02 1020.82 1019.65 1019.32 1019.15 1018.89 1019.12 1019.42 1019.51 1019.44 1019.25 1019.21 1019.21 1019.43 1019.75 1020.59 1021.39 1021.80 1022.10 1022.57 1022.55 1022.71 1022.83 1023.38 1023.57 1023.73 1023.95 1024.02 1024.17 1024.32
1010.02 1011.05 1013.01 1014.43 1015.09 1015.50 1015.97 1016.64 1017.65 1018.37 1018.73 1019.33 1019.33 1019.39 1019.91 1021.02 1019.88 1019.44 1019.39 1019.53 1019.55 1019.45 1019.39 1019.49 1019.78 1019.81 1020.33 1020.55 1021.59 1022.26 1022.71 1022.90 1023.19 1023.22 1023.45 1023.53 1023.77 1024.00 1024.61 1025.14 1024.87 1024.98 1025.08
1010.09 1011.15 1013.29 1014.57 1015.06 1015.60 1016.42 1017.43 1018.08 1018.37 1018.93 1019.69 1020.02 1020.05 1019.73 1020.97 1020.93 1019.57 1020.08 1020.21 1019.93 1019.80 1019.62 1019.53 1019.85 1020.23 1020.43 1020.85 1022.04 1023.05 1023.56 1023.89 1023.83 1024.23 1024.10 1024.18 1024.26 1024.64 1024.79 1024.86 1025.19 1025.97 1026.05
1011.32 1012.63 1013.72 1014.50 1015.30 1015.70 1016.57 1017.26 1017.97 1018.50 1018.71 1020.28 1020.40 1020.02 1020.18 1020.60 1020.48 1020.37 1020.29 1020.81 1020.45 1020.27 1019.92 1020.00 1019.84 1020.28 1020.51 1021.35 1022.07 1023.47 1024.25 1024.61 1024.74 1024.87 1025.04 1025.11 1025.11 1025.29 1025.47 1025.57 1025.17 1025.57 1026.44
1013.39 1013.87 1014.49 1015.12 1015.50 1015.95 1016.25 1017.11 1017.60 1018.35 1017.87 1019.69 1019.77 1020.25 1020.20 1020.41 1019.99 1019.84 1020.63 1021.11 1020.92 1020.29 1020.05 1020.12 1020.09 1019.99 1019.96 1020.80 1020.55 1022.02 1023.68 1024.80 1025.22 1025.51 1025.66 1025.72 1025.88 1025.73 1025.79 1025.63 1025.67 1025.89 1026.06
1014.60 1015.03 1015.46 1015.93 1016.08 1016.28 1016.44 1017.29 1017.83 1018.39 1019.15 1019.76 1019.70 1019.71 1019.83 1019.59 1019.87 1020.03 1020.33 1020.46 1020.91 1020.66 1020.37 1020.50 1020.61 1020.24 1020.06 1020.33 1020.47 1020.28 1021.87 1022.68 1024.59 1025.76 1026.07 1026.11 1026.22 1026.33 1026.21 1026.16 1026.13 1026.07 1026.21
1015.38 1015.73 1015.91 1016.33 1016.57 1016.69 1016.69 1016.87 1017.07 1017.24 1018.09 1018.71 1019.09 1019.26 1019.71 1019.99 1019.88 1020.04 1019.85 1020.23 1020.75 1020.62 1020.57 1020.31 1020.58 1020.67 1020.43 1019.71 1020.45 1020.10 1020.67 1020.72 1022.62 1024.81 1026.01 1026.28 1026.28 1026.32 1026.54 1026.65 1026.76 1026.62 1026.35
1015.37 1015.59 1015.93 1016.36 1016.59 1016.68 1016.47 1016.40 1016.67 1017.20 1017.19 1017.72 1018.46 1018.93 1019.41 1019.74 1020.15 1019.89 1019.86 1019.95 1020.33 1020.44 1020.64 1020.93 1020.97 1021.02 1020.84 1020.45 1019.76 1020.05 1020.57 1020.63 1021.23 1022.18 1024.13 1025.57 1026.37 1026.49 1026.53 1026.70 1026.87 1027.02 1026.95
1014.81 1015.16 1015.44 1015.84 1015.93 1016.10 1016.28 1016.47 1016.60 1016.83 1017.01 1017.27 1017.62 1018.12 1018.65 1018.87 1019.11 1019.32 1019.65 1019.91 1020.11 1020.47 1020.66 1020.78 1020.85 1020.96 1021.12 1021.07 1020.82 1020.21 1020.22 1020.36 1020.78 1021.41 1022.09 1024.04 1024.81 1026.04 1026.75 1026.83 1026.77 1026.76 1027.29
Wind_Speed
12 19 16 13 10 8 8 10 13 14 15 16 16 16 15 14 13 11 10 10 9 11 13 14 13 13 14 14 14 14 12 11 11 10 10 12 12 12 9 4 7 15 12
16 20 17 15 12 11 11 11 14 15 15 16 16 15 14 13 13 12 10 10 10 11 13 14 14 13 14 13 12 13 11 9 9 8 10 12 11 11 9 11 14 13 12
17 18 20 15 13 12 12 12 15 16 16 16 15 14 14 12 12 11 10 9 11 11 12 13 13 13 14 14 10 10 11 8 7 3 7 8 12 10 10 10 11 11 11
17 18 19 16 14 13 12 12 13 16 17 16 15 14 13 12 11 10 9 9 10 10 11 12 12 13 11 11 11 8 8 8 5 5 4 8 11 9 9 9 10 10 10
16 17 17 16 14 13 12 12 13 15 15 15 14 14 13 12 12 11 9 9 10 11 11 11 11 11 9 8 9 9 6 5 4 9 7 5 8 10 8 8 11 9 4
14 14 17 14 14 13 12 11 12 14 13 13 14 14 13 12 12 10 9 8 10 10 11 10 10 10 8 7 7 7 5 2 8 6 5 7 1 12 8 4 7 9 9
11 10 14 9 10 11 11 11 11 12 13 13 12 12 12 12 10 9 9 8 9 9 10 10 8 6 8 7 5 5 4 2 9 4 5 7 6 10 9 8 7 7 8
10 9 13 12 10 10 10 11 11 10 11 11 11 11 11 10 10 9 8 8 8 10 9 8 7 6 5 5 5 3 1 4 7 2 2 5 12 11 11 10 7 7 8
10 10 11 13 12 8 7 7 8 9 10 10 10 10 10 10 9 9 8 8 7 8 9 8 7 7 5 4 3 2 1 5 9 3 4 4 9 10 11 12 11 9 9
9 10 10 11 12 12 12 7 8 9 9 8 8 8 8 8 9 8 8 8 8 7 7 8 7 6 6 5 4 3 4 8 10 5 6 4 6 10 9 11 9 8 9
10 11 10 11 11 11 11 10 8 7 6 7 8 6 8 9 10 11 5 12 8 8 8 7 7 7 7 8 7 6 7 8 4 6 4 10 4 10 9 9 9 7 6
16 14 11 11 11 10 8 10 10 10 10 10 10 11 9 7 7 5 7 7 7 6 6 7 8 7 9 7 7 9 8 4 5 5 3 3 6 11 16 14 18 18 16
16 13 13 11 10 10 8 8 6 6 6 5 9 9 8 5 4 6 5 7 7 8 8 10 10 9 6 5 3 4 5 5 3 3 6 7 17 17 17 18 18 18 15
14 14 13 10 10 10 7 6 7 6 5 6 7 8 5 4 4 4 3 2 4 3 3 4 3 3 3 2 4 2 1 3 1 3 7 4 15 18 17 21 20 20 19
13 13 13 12 11 9 8 6 5 7 7 6 4 4 4 4 4 4 2 3 2 2 2 3 3 3 3 1 2 4 6 5 6 6 6 12 8 17 20 20 20 21 19
11 12 12 12 11 10 8 8 6 6 5 3 4 4 4 2 2 4 2 1 1 2 1 2 3 1 0 4 5 6 7 7 9 10 9 12 21 15 18 21 20 19 17
8 9 10 9 10 10 10 7 5 5 5 5 6 7 6 4 4 3 2 1 2 2 0 1 2 2 5 6 7 7 8 8 7 11 9 9 10 21 19 19 19 18 17
9 8 11 10 11 10 8 6 4 7 8 7 8 8 13 4 2 2 3 2 2 2 1 1 1 2 1 4 6 6 6 8 6 9 9 8 5 9 16 18 18 16 14
9 8 12 12 12 11 8 9 10 10 7 6 5 6 10 15 5 3 2 3 2 2 3 2 1 1 3 5 7 7 7 6 6 7 10 9 9 8 8 17 19 15 13
4 6 14 10 11 11 9 10 7 7 6 6 4 6 10 3 6 4 4 2 1 2 3 3 4 2 2 6 7 7 7 6 6 6 7 7 8 9 8 8 9 10 14
9 14 13 10 10 9 8 7 7 6 8 5 3 7 6 6 3 4 2 1 1 2 2 3 4 5 4 7 8 6 7 7 8 6 6 6 7 7 6 6 5 6 8
9 9 10 10 9 6 6 7 6 5 7 6 7 7 8 6 7 7 4 1 3 3 4 5 5 5 5 8 5 6 3 2 5 5 4 5 6 5 5 5 7 6 6
9 9 9 10 9 7 10 9 9 8 6 5 6 7 9 10 7 5 7 5 3 2 3 3 4 7 6 8 9 6 4 4 4 2 2 3 4 3 4 5 6 6 7
8 8 10 10 10 8 10 11 12 8 8 5 6 5 4 2 5 6 6 5 2 2 3 2 4 6 7 8 8 8 5 3 5 4 2 2 3 5 5 4 4 4 6
7 7 10 11 10 11 11 9 7 6 5 6 5 7 5 4 4 4 5 5 3 3 3 4 4 5 6 8 7 7 8 5 4 3 4 5 3 3 4 4 3 3 3
9 9 12 12 12 10 8 7 7 7 6 7 7 7 7 6 7 6 5 3 2 2 3 4 4 5 5 6 8 9 8 7 7 6 3 8 7 7 5 4 5 5 4
Wind_Direction
162 148 164 165 166 157 155 143 135 135 136 136 136 135 132 128 125 121 118 115 115 113 111 108 106 103 101 100 100 95 87 91 94 94 97 99 99 94 97 85 164 98 85
160 155 161 162 165 157 156 151 138 136 135 134 135 133 132 130 129 126 125 122 122 118 115 113 111 109 106 103 99 100 94 87 89 99 120 108 104 107 94 39 56 94 94
160 157 165 161 166 161 158 157 143 138 136 136 134 134 134 132 130 129 130 129 124 121 117 115 116 116 115 111 101 100 102 95 92 119 214 139 107 115 108 91 95 99 98
159 160 167 163 166 163 156 154 146 139 137 137 136 136 136 136 134 135 134 129 126 122 121 118 118 117 115 113 112 106 106 108 119 227 198 102 112 118 121 118 112 110 108
164 166 156 161 162 166 158 155 146 141 139 139 140 140 141 141 141 140 136 135 136 133 128 121 121 116 109 108 110 111 108 115 172 239 101 103 118 124 139 133 139 137 101
164 169 131 157 158 161 157 152 145 143 140 142 144 147 148 147 149 144 142 144 143 139 135 132 128 124 120 118 115 112 116 165 242 122 116 118 72 131 149 157 87 112 113
159 166 155 139 148 153 154 155 151 150 145 147 148 150 152 150 149 149 152 152 146 137 135 134 131 131 131 131 128 123 127 228 270 132 147 146 132 148 159 156 148 144 137
158 159 150 151 151 151 157 158 157 155 152 152 152 154 154 155 154 159 161 156 153 144 133 129 133 133 138 136 136 135 126 287 230 184 170 153 124 167 171 164 155 156 154
159 160 157 167 165 151 157 161 156 157 157 160 162 161 158 159 162 158 160 153 145 138 139 142 144 146 150 144 143 136 288 302 284 236 249 187 146 187 173 169 166 159 156
165 164 162 166 172 177 175 158 163 161 162 170 166 166 163 159 163 167 158 161 153 152 155 156 159 160 155 165 168 199 249 256 252 236 223 91 141 190 174 164 165 163 163
182 174 169 167 171 178 178 163 157 160 162 161 170 164 165 194 182 163 139 142 164 169 175 176 177 181 189 193 198 207 241 246 260 253 244 107 195 198 150 130 138 129 149
190 182 176 170 170 172 176 160 186 178 190 195 192 183 202 205 201 201 140 163 172 180 189 200 206 211 221 230 174 199 233 296 259 272 229 109 223 139 117 110 106 98 96
195 186 181 174 168 181 165 175 181 184 195 200 206 197 199 190 170 206 173 185 187 190 202 195 192 218 247 285 252 240 255 249 272 271 74 125 117 127 118 113 108 104 94
200 194 177 176 171 189 170 186 177 186 174 200 195 196 183 196 187 211 215 184 214 217 249 244 230 251 250 259 281 248 321 5 331 55 101 99 130 122 120 111 107 102 97
213 202 183 180 190 186 189 174 167 198 194 193 167 182 204 207 193 185 182 221 251 260 273 260 276 243 219 289 154 134 85 61 46 56 60 33 113 122 117 110 104 96 91
220 206 186 186 193 171 184 181 183 189 146 149 139 166 187 190 129 197 180 201 265 288 20 299 334 268 161 60 93 109 99 85 72 80 74 55 63 82 97 100 99 99 93
234 223 179 176 172 188 183 180 188 167 124 90 60 12 39 51 60 12 56 27 16 45 193 227 179 168 117 85 86 78 74 68 81 86 82 72 65 70 75 84 91 94 95
246 210 144 145 163 182 175 170 158 72 76 68 61 37 351 12 111 120 100 92 66 88 53 243 263 172 140 138 110 76 78 78 65 79 78 89 78 75 70 78 80 79 87
253 193 134 155 162 162 132 95 90 96 101 100 99 94 76 312 8 66 96 102 137 132 142 105 86 29 134 103 85 73 61 69 61 75 78 79 79 95 92 74 68 66 68
239 169 132 154 150 120 108 106 105 104 93 94 99 108 113 193 320 55 54 88 162 164 140 148 131 100 168 122 100 75 58 45 78 66 84 92 99 105 110 116 100 69 52
61 93 135 137 126 133 127 126 127 119 98 96 109 103 117 140 79 48 67 105 249 209 123 173 147 168 162 140 132 94 65 57 65 73 78 88 94 89 103 108 114 115 101
82 103 104 114 123 119 121 123 130 153 111 148 153 148 150 160 148 135 117 298 262 195 189 190 202 191 203 193 215 152 159 132 63 57 90 108 114 123 132 117 112 113 109
81 98 106 107 104 103 121 123 111 107 103 160 185 172 185 159 149 145 151 139 266 260 213 222 233 225 216 208 231 225 159 210 125 104 69 124 136 141 124 121 124 127 121
84 107 119 126 127 135 147 141 150 172 173 198 183 166 157 141 161 174 122 134 204 263 282 225 232 254 247 222 207 235 281 98 189 163 168 160 173 160 142 128 128 134 125
117 128 135 137 144 162 172 175 166 157 178 144 150 148 148 163 207 126 132 140 175 206 216 255 238 240 254 260 235 218 237 223 243 153 173 171 205 194 160 157 151 148 129
129 143 145 154 158 160 166 161 177 158 169 167 159 167 176 173 172 155 143 142 149 241 240 230 217 232 254 270 274 259 238 220 213 223 181 167 181 178 184 174 175 161 155